Home > Time Zones > World Clock > Weather > Palau > Koror > Past weeks

Flag for Palau Weather past 2 weeks in Koror, Palau

Now
84 °F

Broken clouds.


Feels Like: 96 °F
Forecast: 82 / 89 °F
Wind: 3 mph from Northwest

Location: Koror / Palau Island

Current Time: Jun 3, 2015 at 4:48:14 PM

Latest Report: Jun 3, 2015 at 3:50 PM


Visibility: 14 mi

Pressure: 29.78 "Hg

Humidity: 84%

Dew point: 79 °F

Location of KororLocation

Historic Weather in Koror — Graph

°F

Koror temperature yesterday

Maximum temperature yesterday: 84 °F (at 1:50 PM)
Minimum temperature yesterday: 75 °F (at 5:51 AM)
Average temperature yesterday: 80 °F

Past Weeks' High & Low Weather Summary

 TemperatureHumidityPressure
High90 °F (May 21, 11:50 AM)100% (May 19, 8:50 PM)29.96 "Hg (May 19, 8:50 PM)
Low75 °F (May 21, 2:53 AM)55% (May 21, 1:50 PM)29.77 "Hg (Jun 1, 4:55 PM)
Average81 °F86%29.87 "Hg
* Reported May 19 2:50 PM — Jun 3 2:53 PM, Koror, Weather by CustomWeather, © 2015

Note: Actual official high and low records may vary slightly from our data, if they occured in-between our weather recording intervals... More about our weather records

Advertising

Koror weather history for previous 24 hours

 ConditionsComfort  
Time TempWeatherWind HumidityBarometerVisibility
2:53 PM
Wed, Jun 3
81 °FSprinkles. Mostly cloudy.3 mph89%29.80 "Hg8 mi
1:55 PM84 °FPartly sunny.5 mph79%29.81 "Hg14 mi
12:50 PM81 °FSprinkles. Partly sunny.No wind89%29.83 "Hg10 mi
11:50 AM84 °FScattered showers. Partly sunny.5 mph79%29.85 "Hg12 mi
10:50 AM86 °FPartly sunny.3 mph75%29.86 "Hg15 mi
9:50 AM84 °FBroken clouds.3 mph79%29.86 "Hg15 mi
8:50 AM82 °FScattered showers. Partly sunny.7 mph84%29.86 "Hg12 mi
7:50 AM84 °FBroken clouds.5 mph79%29.86 "Hg14 mi
6:55 AM81 °FBroken clouds.No wind89%29.85 "Hg14 mi
5:51 AM77 °FBroken clouds.No wind94%29.83 "Hg14 mi
4:50 AM75 °FPartly cloudy.No wind94%29.82 "Hg14 mi
3:51 AM75 °FPartly cloudy.No wind94%29.82 "Hg14 mi
2:54 AM75 °FPartly cloudy.No wind94%29.83 "Hg14 mi
1:50 AM75 °FPassing clouds.No wind100%29.83 "Hg14 mi
12:52 AM77 °FPassing clouds.No wind94%29.84 "Hg14 mi
11:50 PM
Tue, Jun 2
77 °FPassing clouds.3 mph94%29.85 "Hg14 mi
10:50 PM77 °FPartly cloudy.6 mph94%29.87 "Hg14 mi
9:50 PM79 °FPartly cloudy.5 mph94%29.87 "Hg14 mi
8:50 PM77 °FPartly cloudy.No wind100%29.85 "Hg14 mi
7:50 PM79 °FPartly cloudy.5 mph94%29.83 "Hg14 mi
6:50 PM81 °FPartly cloudy.3 mph89%29.80 "Hg14 mi
5:50 PM82 °FBroken clouds.No wind84%29.78 "Hg14 mi
4:53 PM82 °FPartly sunny.5 mph84%29.77 "Hg15 mi
Weather by CustomWeather, © 2015

See weather overviewHow to use our weather pages